Flag for Germany Weather past 2 weeks in Bad Oeynhausen, North Rhine-Westphalia, Germany

Now
55 °F

Broken clouds.


Feels Like: 52 °F
Forecast: 51 / 64 °F
Wind: 15 mph from Southwest

Location: Bueckeburg

Current Time: Jun 2, 2015 at 7:48:49 AM

Latest Report: Jun 2, 2015 at 6:20 AM


Visibility: N/A

Pressure: 29.83 "Hg

Humidity: 63%

Dew point: 43 °F

Location of Bad OeynhausenLocation

Historic Weather in Bad Oeynhausen — Graph

°F

Bad Oeynhausen temperature yesterday

Maximum temperature yesterday: 61 °F (at 12:20 AM)
Minimum temperature yesterday: 50 °F (at 4:20 AM)
Average temperature yesterday: 56 °F

Past Weeks' High & Low Weather Summary

 TemperatureHumidityPressure
High68 °F (May 18, 6:20 PM)100% (May 24, 6:20 AM)30.33 "Hg (May 24, 6:20 AM)
Low39 °F (May 24, 4:20 AM)39% (May 21, 5:20 PM)29.59 "Hg (May 18, 8:20 PM)
Average54 °F68%29.98 "Hg
* Reported May 18 6:20 AM — Jun 2 6:20 AM, Bad Oeynhausen, Weather by CustomWeather, © 2015

Note: Actual official high and low records may vary slightly from our data, if they occured in-between our weather recording intervals... More about our weather records

Advertising

Bad Oeynhausen weather history for previous 24 hours

 ConditionsComfort  
Time TempWeatherWind HumidityBarometerVisibility
6:20 AM
Tue, Jun 2
55 °FBroken clouds.15 mph63%29.83 "HgN/A
5:20 AM55 °FPassing clouds.13 mph63%29.86 "HgN/A
4:20 AM54 °FPassing clouds.10 mph72%29.89 "HgN/A
3:20 AM55 °FPassing clouds.12 mph72%29.89 "HgN/A
2:20 AM54 °FPartly cloudy.8 mph77%29.92 "HgN/A
1:20 AM55 °FPassing clouds.10 mph72%29.92 "HgN/A
12:20 AM55 °FPassing clouds.8 mph63%29.92 "HgN/A
11:20 PM
Mon, Jun 1
55 °FPassing clouds.7 mph59%29.95 "HgN/A
10:20 PM54 °FPartly sunny.5 mph63%29.98 "HgN/A
9:20 PM55 °FPartly sunny.5 mph59%29.98 "HgN/A
8:20 PM59 °FScattered clouds.3 mph48%29.98 "HgN/A
7:20 PM61 °FScattered clouds.3 mph45%29.98 "HgN/A
6:20 PM61 °FBroken clouds.8 mph42%30.01 "HgN/A
5:20 PM61 °FPartly sunny.8 mph42%30.01 "HgN/A
4:20 PM61 °FBroken clouds.3 mph45%30.04 "HgN/A
3:20 PM59 °FBroken clouds.5 mph48%30.04 "HgN/A
2:20 PM59 °FPartly sunny.8 mph48%30.04 "HgN/A
1:20 PM59 °FPartly sunny.8 mph45%30.04 "HgN/A
12:20 PM57 °FPartly sunny.8 mph51%30.01 "HgN/A
11:20 AM57 °FBroken clouds.9 mph51%30.01 "HgN/A
10:20 AM55 °FBroken clouds.10 mph55%30.01 "HgN/A
9:20 AM54 °FPartly sunny.8 mph67%30.01 "HgN/A
8:20 AM52 °FBroken clouds.9 mph82%29.98 "HgN/A
7:20 AM50 °FScattered clouds.7 mph88%29.98 "HgN/A
Weather by CustomWeather, © 2015

See weather overviewHow to use our weather pages